Simultaneous Nadir Overpasses (SNOs) Predictions

Prediction of SNOs between METOP-B and NOAA-19 Satellite Orbit:

Table of predicted SNOs for the next 14.0 days since TLE Epoch: 9/7/2018
Index Date (METOP-B) Time (METOP-B) Lat,Lon (METOP-B) SZA (METOP-B ) Date (NOAA-19) Time (NOAA-19) Lat,Lon (NOAA-19) SZA (NOAA-19 ) Distance(km) Time Diff (sec)
1 09/12/2018 13:56:36 78.68, -18.04 74.82 09/12/2018 13:55:30 78.67, -18.10 74.80 1.72 66
2 09/12/2018 14:47:18 -78.67, 149.24 105.18 09/12/2018 14:46:30 -78.66, 149.22 105.20 1.42 48
3 09/12/2018 15:37:58 78.66, -43.49 74.82 09/12/2018 15:37:31 78.66, -43.59 74.82 2.18 27
4 09/12/2018 16:28:40 -78.65, 123.78 105.18 09/12/2018 16:28:31 -78.65, 123.74 105.18 1.12 9
5 09/12/2018 17:19:20 78.64, -68.95 74.83 09/12/2018 17:19:31 78.63, -68.83 74.82 2.83 11
6 09/12/2018 18:10:02 -78.63, 98.33 105.17 09/12/2018 18:10:32 -78.65, 98.25 105.15 2.84 30
7 09/12/2018 19:00:42 78.62, -94.40 74.83 09/12/2018 19:01:32 78.63, -94.32 74.85 1.96 50
8 09/12/2018 19:51:24 -78.61, 72.88 105.17 09/12/2018 19:52:32 -78.61, 73.01 105.15 2.92 68




NCC Satellite Simultaneous Nadir Overpasses (SNOs) Prediction Service
